sat.trackr.live / text

‹ back to catalog

STARLINK-33736

NORAD 63450 · 2025-069T

PAYLOAD ACTIVE UNKNOWN

§ Identity

Operator
Country
US
Launch date
2025-04-04
Launch site
AFWTR
Launch vehicle
Mass (kg)
RCS (m²)

Purposes: comms

External: N2YO · Heavens-Above · Gunter

§ Orbital elements

Epoch: 2026-09-20T10:38:19.580352Z

Period
93.85 min
Inclination
53.1601°
Eccentricity
0.0001817
Mean motion
15.34399189 rev/d
Perigee alt
461.5 km
Apogee alt
463.9 km
Semi-major
6,840.8 km
B*
4.4154e-4
RAAN
309.9561°
Arg perigee
57.5271°
Mean anomaly
302.5908°
Rev number
8,328

§ Raw data

STARLINK-337361 63450U 25069T   26263.44328218  .00014571  00000+0  44154-3 0  99992 63450  53.1601 309.9561 0001817  57.5271 302.5908 15.34399189 83283

JSON: /api/v1/satellites/63450 · /tle

For live sub-satellite position, see the globe view (requires WebGL).

§ Visibility from observer

Set your observer location to see the next 7 days of passes ≥ 10°. The values pass through the URL so the page stays shareable.

No JS? Fill the form by hand. The geolocation button needs JavaScript.